Location: Bay Shore Mobile Home Park
(38.5762°N, 75.0841°W)
Time: 09:45:27
(UTC+00:00)

Cosmos 2016 Rocket - Pass Details

Date: 15 November 2025
Orbit: 947 x 999 km, 83.0° (Epoch: 04 December)

Event Time Altitude Azimuth Distance (km) Brightness Sun altitude
Rises 22:05:23 0° 188° (S) 3,657 7.4 -4.2°
Reaches altitude 10° 22:07:52 10° 190° (S) 2,721 6.8 -4.6°
Maximum altitude 22:14:07 80° 276° (W) 1,008 4.3 -5.8°
Drops below altitude 10° 22:20:30 10° 4° (N) 2,767 6.2 -6.9°
Sets 22:23:03 0° 6° (N) 3,724 6.8 -7.4°
